Printer-friendly version

IAU Minor Planet Center

Minor Planet Center

MPEC 2001-W33: S/2000 J 4

The following Minor Planet Electronic Circular may be linked-to from your own Web pages, but must not otherwise be redistributed electronically.


Read MPEC 2001-W32 Read MPEC 2001-W34


M.P.E.C. 2001-W33                                Issued 2001 Nov. 20, 20:44 UT

     The Minor Planet Electronic Circulars contain information on unusual
         minor planets and routine data on comets.  They are published
   on behalf of Commission 20 of the International Astronomical Union by the
          Minor Planet Center, Smithsonian Astrophysical Observatory,
                          Cambridge, MA 02138, U.S.A.

             Prepared using the Tamkin Foundation Computer Network

                              MPC@CFA.HARVARD.EDU
          URL http://cfa-www.harvard.edu/iau/mpc.html  ISSN 1523-6714

                                  S/2000 J 4

                           Revision to MPEC 2001-A28

Observations:
    SK00J040  C2001 11 16.59194 07 03 21.06 +22 01 21.4          23.0 R      568
    SK00J040  C2001 11 16.61799 07 03 20.63 +22 01 21.9          22.8 R      568
    SK00J040  C2001 11 17.44615 07 03 07.69 +22 01 38.0          23.2 R      568
    SK00J040  C2001 11 17.45674 07 03 07.50 +22 01 38.2          23.1 R      568

Observer details:
568 Mauna Kea.  Observer S. S. Sheppard.  2.2-m University of Hawaii
    reflector + CCD.

Orbital elements:
S/2000 J 4
Epoch 2001 Oct. 18.0 TT = JDT 2452200.5                 MPC
M 247.72700              (2000.0)            P               Q
n   0.47210290     Peri.  355.99401     +0.82417309     -0.53638109
a   0.1608476      Node   321.69178     -0.51111722     -0.84269058
e   0.1919644      Incl.  162.95032     -0.24392193     -0.04656080
P   2.09           H   16.0           P/d   762.55
Residuals in seconds of arc
001123 568  0.0   0.1+    001201 568  0.3+  0.1+    001227 568  0.3-  0.2+
001123 568  0.2+  0.1+    001203 568  0.3+  0.1+    001227 568  0.1+  0.0
001123 568  0.4-  0.2-    001203 568  0.1+  0.2+    001231 568  0.1-  0.3+
001126 568  0.2-  0.1+    001205 568  0.0   0.3-    001231 568  0.0   0.2+
001126 568  0.1-  0.1+    001205 568  0.1+  0.3-    010127 568  0.0   0.1-
001126 568  0.2-  0.1+    001205 568  0.0   0.2-    010127 568  0.2-  0.3+
001126 568  0.2+  0.0     001205 568  0.2-  0.3-    011116 568  0.0   0.1-
001129 568  0.0   0.3+    001216 568  0.1+  0.1-    011116 568  0.1-  0.0
001129 568  0.1+  0.1+    001216 568  0.2+  0.4-    011117 568  0.1+  0.0
001129 568  0.2-  0.1+    001217 568  0.1+  0.4-    011117 568  0.1-  0.0
001201 568  0.0   0.0     001217 568  0.2+  0.2-

Ephemeris:
    S/2000 J 4                                                   q = 0.1300
Date    TT    R. A. (2000) Decl.     Delta      r    dR.A. ("/m)  dDecl.m1"/')
2001 11 17    07 03.25   +22 01.5    4.627    0.171  2682-/3.21-  1577-/ 26.3-
2001 11 27    06 59.97   +22 05.7    4.512    0.168  3142-/3.77-  1649-/ 27.5-
2001 12 07    06 55.50   +22 11.7    4.420    0.166  3560-/4.27-  1720-/ 28.7-
2001 12 17    06 50.09   +22 18.7    4.355    0.164  3930-/4.72-  1785-/ 29.7-
2001 12 27    06 44.09   +22 26.3    4.320    0.161  4254-/5.11-  1837-/ 30.6-
2002 01 06    06 37.90   +22 33.6    4.315    0.158  4534-/5.45-  1871-/ 31.2-
2002 01 16    06 31.97   +22 40.3    4.342    0.156  4773-/5.75-  1880-/ 31.3-
2002 01 26    06 26.72   +22 46.2    4.397    0.153  4976-/6.00-  1860-/ 31.0-
2002 02 05    06 22.50   +22 51.2    4.479    0.151  5145-/6.20-  1809-/ 30.1-
2002 02 15    06 19.56   +22 55.6    4.583    0.148  5280-/6.37-  1726-/ 28.8-
2002 02 25    06 18.06   +22 59.4    4.704    0.146  5377-/6.49-  1615-/ 26.9-
2002 03 07    06 18.05   +23 02.7    4.838    0.143  5432-/6.56-  1477-/ 24.6-
2002 03 17    06 19.52   +23 05.4    4.979    0.141  5437-/6.57-  1316-/ 21.9-
2002 03 27    06 22.39   +23 07.4    5.124    0.139  5386-/6.51-  1137-/ 18.9-
2002 04 06    06 26.56   +23 08.5    5.267    0.137  5272-/6.37-   944-/ 15.7-
2002 04 16    06 31.91   +23 08.3    5.407    0.135  5089-/6.15-   743-/ 12.4-
2002 04 26    06 38.31   +23 06.4    5.539    0.134  4834-/5.84-   539-/  9.0-
2002 05 06    06 45.61   +23 02.7    5.662    0.132  4505-/5.44-   339-/  5.6-
2002 05 16    06 53.69   +22 56.6    5.773    0.131  4104-/4.95-   148-/  2.5-

Brian G. Marsden             (C) Copyright 2001 MPC           M.P.E.C. 2001-W33

Read MPEC 2001-W32 Read MPEC 2001-W34


Our Web policy. Index to the CBAT/MPC/ICQ pages.


Valid HTML 4.01!